Temperature
16 16 16 15 15 15 15 15 16 16 16 16 16 15 15 15 15 15 15 15 15 15 15 15 15 15 15 15 15 16 16 16 16 16 16 16 16 16 16 16 16 16 16
16 16 16 15 15 15 15 15 15 15 15 15 15 15 15 15 15 15 14 14 15 15 15 15 15 15 15 15 15 15 15 15 16 16 16 16 16 16 16 16 16 16 16
16 16 16 16 15 15 15 15 15 15 15 15 15 15 15 15 15 14 14 14 14 15 15 15 15 15 15 15 15 15 15 15 15 15 15 16 16 16 16 16 16 16 16
16 16 16 15 15 15 15 15 15 15 15 15 15 15 15 15 14 14 14 14 14 14 14 15 15 14 15 15 15 15 15 15 15 15 15 15 15 15 16 16 16 16 16
16 16 16 16 15 15 15 15 15 15 15 15 15 15 15 14 14 14 14 14 14 14 14 14 14 14 14 15 14 14 14 14 14 15 15 15 15 15 15 15 15 16 16
16 16 16 16 15 15 15 15 15 15 15 15 15 15 15 14 14 14 14 14 14 14 14 14 14 14 14 14 14 14 14 14 14 14 14 15 15 15 15 15 15 15 15
16 16 16 15 15 15 15 15 15 15 15 15 15 15 15 14 14 14 14 14 14 14 14 13 13 14 14 14 14 14 14 14 14 14 14 14 14 14 14 15 15 15 15
15 15 15 15 15 15 15 15 15 15 15 15 15 15 16 15 14 14 14 14 14 14 13 13 13 13 13 13 14 14 14 14 14 14 14 14 14 14 14 14 14 14 14
15 15 15 15 15 15 15 15 15 15 15 15 15 15 16 17 15 14 14 14 14 14 13 13 13 13 13 13 13 13 14 14 14 14 14 13 13 13 14 14 14 14 14
15 15 15 15 15 15 15 15 15 15 15 15 15 15 15 15 15 15 14 14 14 13 13 13 13 13 12 12 13 13 13 13 13 13 13 13 13 13 13 13 13 13 13
16 15 15 15 15 15 15 15 15 15 15 15 14 14 14 14 15 15 15 14 14 13 13 13 13 12 12 12 12 13 13 13 13 13 13 13 13 13 13 13 13 13 13
16 15 15 15 15 15 15 15 15 15 15 15 14 14 14 14 14 15 15 15 14 13 13 13 13 12 12 12 12 13 13 13 13 13 13 13 13 13 13 13 13 13 13
16 16 16 15 15 15 15 15 15 15 14 14 14 14 14 14 14 14 14 14 14 14 13 13 13 12 12 12 12 12 13 13 13 13 13 13 13 13 13 13 13 13 13
16 16 16 15 15 15 15 15 15 14 14 14 14 14 14 14 14 13 13 14 14 14 14 13 12 12 12 12 12 12 12 12 13 12 12 12 12 12 12 12 12 12 12
16 16 16 15 15 15 15 15 14 14 14 14 14 14 14 13 13 13 13 13 13 14 14 13 12 12 12 12 12 12 12 12 12 12 12 12 12 12 12 12 12 12 12
16 16 15 15 15 15 15 15 14 14 14 14 14 14 13 13 13 13 13 13 13 13 14 13 12 12 12 12 12 12 12 12 12 12 12 12 12 12 12 12 12 12 12
16 16 15 15 15 15 15 15 14 14 14 14 13 13 13 13 13 13 13 12 12 12 12 12 12 12 12 12 11 11 11 11 11 12 12 12 12 12 12 12 12 12 12
16 16 15 15 15 15 15 14 14 14 13 13 13 13 13 13 13 12 12 12 12 12 12 12 12 11 11 11 11 11 11 11 11 11 12 12 12 12 12 11 11 11 11
16 15 15 15 15 15 14 14 14 14 13 13 13 13 13 13 12 12 12 12 12 12 11 11 11 11 11 11 11 11 11 11 11 11 11 11 11 11 11 11 11 11 11
16 15 15 15 15 15 14 14 14 14 13 13 13 13 13 12 12 12 12 12 11 11 11 11 11 11 11 11 11 11 11 11 11 10 11 11 11 11 11 11 11 10 10
15 15 15 15 15 15 14 14 14 14 13 13 13 13 13 13 12 12 12 11 11 11 11 11 11 11 11 10 10 10 10 10 10 10 10 10 10 10 10 10 10 10 10
15 15 15 15 15 15 14 14 14 13 13 13 12 12 12 12 12 12 12 12 11 11 11 10 10 10 10 10 10 10 10 10 10 10 10 10 10 9 9 9 9 9 9
15 15 15 14 14 14 14 14 14 13 13 12 12 12 12 12 12 12 11 11 11 11 11 10 10 10 10 10 10 10 9 9 9 9 9 9 9 9 9 9 9 9 9
15 15 14 14 14 14 14 14 13 13 12 12 12 12 12 11 11 11 11 11 11 11 10 10 10 10 10 10 9 9 9 9 9 9 9 8 9 9 9 8 8 8 8
15 14 14 14 14 13 13 13 13 13 12 12 12 12 11 11 11 11 11 10 10 10 10 10 10 10 10 10 9 9 8 8 8 8 8 8 8 8 8 8 8 8 7
14 14 14 14 13 13 13 13 13 12 12 12 12 11 11 11 11 11 10 10 10 10 9 9 9 9 9 9 9 8 8 7 8 7 7 7 7 7 7 7 7 7 7
Wind_Speed
4 4 4 4 4 5 4 4 5 6 6 7 7 7 7 7 7 7 8 12 12 12 11 11 11 11 11 11 10 10 9 10 10 9 8 8 7 6 4 4 4 3 2
4 3 4 4 4 4 5 4 5 4 5 5 6 6 6 7 7 7 7 9 12 13 13 12 11 11 11 11 11 11 10 10 10 10 9 8 7 6 4 4 3 3 3
4 4 4 4 4 4 4 4 5 4 4 4 5 6 6 6 6 7 7 6 7 11 12 13 12 11 12 12 12 12 11 11 11 11 10 9 8 7 5 4 3 3 2
4 4 3 3 4 4 3 3 3 3 4 4 4 4 5 5 6 6 6 7 7 7 9 12 12 12 12 13 12 12 12 11 11 11 10 10 9 7 5 5 4 4 3
4 4 3 3 4 3 3 3 3 3 4 4 4 4 4 4 5 5 6 7 7 6 7 8 9 12 13 13 13 13 12 12 11 11 10 10 10 8 6 6 6 5 4
3 3 3 3 4 3 3 3 4 3 3 3 4 4 3 3 3 4 5 5 6 7 7 7 6 8 11 13 13 13 12 12 12 11 10 10 10 9 8 8 7 6 5
3 3 2 3 2 3 3 3 4 4 3 2 2 3 3 3 3 3 3 3 5 6 6 7 6 6 6 9 13 13 13 12 11 11 10 10 9 9 8 8 8 8 7
2 2 2 2 2 2 3 3 2 2 2 0 1 1 1 3 2 2 2 3 4 4 5 6 7 7 7 6 10 12 13 13 11 10 10 10 10 9 8 8 7 7 7
2 1 2 2 2 2 2 2 2 1 1 1 2 2 2 1 1 2 2 2 3 3 3 4 6 7 7 7 8 11 14 13 11 10 10 10 9 8 8 8 7 7 7
2 2 2 2 2 2 2 2 1 1 1 1 1 2 3 2 2 0 1 2 2 3 3 3 4 6 7 7 8 11 13 13 11 10 10 9 9 8 8 8 8 8 8
2 2 2 2 2 2 2 1 1 0 0 1 1 0 1 1 3 2 1 0 1 1 2 3 3 4 6 6 7 10 11 12 11 11 10 9 8 7 7 8 7 8 7
2 2 3 2 2 2 2 2 1 1 0 0 1 1 1 2 2 2 2 1 1 1 2 2 3 3 4 5 7 9 10 10 10 10 10 9 8 8 7 8 8 8 8
3 3 3 3 2 2 2 2 2 1 1 0 1 1 1 2 2 2 2 2 2 1 1 1 2 3 4 5 5 7 7 9 8 8 8 8 8 7 7 7 7 7 8
3 3 3 3 3 3 3 2 2 1 1 1 0 0 1 1 2 2 2 3 2 1 1 1 2 3 4 5 6 7 6 7 7 7 8 7 7 7 7 7 7 7 7
3 3 3 3 3 3 3 3 2 2 1 1 1 1 1 0 1 1 2 3 3 3 1 1 1 3 4 5 6 6 6 8 7 7 7 7 7 7 7 7 7 6 7
4 4 4 4 4 4 4 3 2 1 2 1 0 0 0 0 0 1 1 2 3 3 3 2 2 3 4 4 4 5 5 4 5 5 6 6 6 6 6 6 6 6 6
5 5 4 4 4 4 4 4 3 3 2 2 2 1 1 1 1 1 1 1 2 2 3 2 2 2 3 4 4 5 5 5 5 5 6 6 6 6 6 6 6 6 6
5 4 4 4 4 4 4 4 4 3 3 2 2 2 2 1 2 2 1 2 2 2 3 3 2 2 3 4 4 5 4 4 5 5 5 6 6 6 6 7 6 6 7
5 5 4 4 4 4 4 4 4 3 3 2 2 2 2 2 2 2 2 2 2 2 2 3 3 2 3 3 4 4 4 4 5 3 3 3 4 5 6 6 6 6 6
5 5 5 4 4 4 4 4 4 4 3 2 2 2 2 2 2 2 2 2 2 2 2 3 3 3 3 3 4 4 4 3 4 4 4 3 2 3 4 5 5 5 6
4 4 4 4 3 3 3 3 4 4 3 3 2 2 1 1 3 2 2 2 2 2 2 3 3 3 3 3 4 4 5 5 4 4 4 4 4 4 4 3 3 4 6
4 4 4 4 3 2 2 1 3 4 3 3 3 2 2 2 2 2 2 3 4 4 4 3 4 4 5 5 4 5 5 6 5 3 5 6 5 5 4 5 4 4 6
5 4 4 4 4 3 4 4 5 4 4 3 3 3 2 2 2 2 4 5 4 4 6 6 5 5 6 5 6 6 6 6 6 6 6 6 5 5 5 4 2 4 6
5 4 4 4 4 3 4 5 5 5 4 4 4 4 3 3 2 3 3 3 3 3 4 4 5 6 6 6 6 6 7 7 7 5 5 6 6 6 6 6 3 4 6
4 4 4 4 4 4 4 5 5 4 4 5 4 4 4 4 1 2 4 4 4 3 2 3 4 5 6 6 6 5 6 6 7 6 4 6 7 8 7 6 5 5 6
4 4 3 4 4 4 4 4 6 4 5 4 4 4 2 3 1 2 4 5 5 5 4 4 4 6 6 5 5 6 6 6 7 6 4 5 7 7 7 5 5 6 7
Wind_Direction
73 82 84 79 76 80 87 79 82 79 78 75 72 70 72 68 64 63 64 56 49 46 44 43 41 40 38 36 36 34 33 30 26 24 25 22 19 19 26 32 33 32 33
72 81 87 83 79 77 79 88 91 89 81 77 74 71 66 68 65 63 61 70 64 53 46 44 40 38 37 37 37 35 33 29 25 22 20 19 17 18 26 31 29 27 31
74 78 75 81 84 88 90 89 90 86 86 89 83 75 70 63 64 61 57 52 63 65 52 43 39 38 37 37 36 34 32 28 24 22 20 16 17 18 28 29 31 27 30
73 77 77 81 87 91 91 88 85 92 94 90 84 76 76 71 66 62 60 60 53 49 61 52 43 39 37 36 34 31 29 25 23 22 21 21 21 20 32 41 41 39 39
71 83 77 84 95 95 93 95 90 94 94 91 93 85 75 69 63 57 58 54 56 49 51 64 58 47 38 34 31 29 28 24 21 21 21 23 25 28 42 48 49 45 48
74 89 95 93 94 101 104 105 104 94 91 98 94 89 83 84 74 56 50 50 45 46 43 41 46 58 50 37 29 27 25 23 21 20 21 21 25 33 44 48 46 44 44
75 86 93 85 91 103 107 115 117 116 109 107 127 117 110 90 76 68 46 42 51 45 41 41 35 30 46 51 33 25 22 21 20 21 23 23 25 33 43 46 45 43 41
85 105 111 109 108 112 118 115 128 127 112 29 286 234 169 147 108 72 54 34 37 47 38 36 36 34 27 30 42 27 17 14 18 22 25 27 28 33 37 40 41 39 36
106 109 123 120 123 141 129 126 142 141 137 116 360 330 323 11 81 110 62 52 39 31 37 33 32 31 28 26 24 28 17 16 18 24 26 27 28 31 33 35 34 34 33
140 148 150 151 144 129 130 145 129 145 212 160 96 4 356 4 303 182 134 68 39 30 27 24 24 27 25 26 27 23 17 17 22 25 26 27 28 30 31 30 29 29 29
155 162 165 164 156 150 148 131 126 151 229 307 314 357 26 331 297 310 311 338 64 48 29 18 17 19 19 22 17 25 18 15 18 21 21 23 28 29 28 27 26 26 24
165 165 169 170 169 164 161 157 153 149 25 20 314 311 304 307 318 314 299 298 334 38 32 26 9 18 13 14 22 23 15 14 13 15 18 22 25 24 22 21 21 19 16
178 173 174 177 171 174 177 179 182 182 172 191 291 320 325 325 327 314 308 317 318 322 15 22 28 22 11 8 17 10 21 17 15 15 16 18 18 17 15 12 11 10 9
184 172 177 176 174 178 181 178 196 189 193 192 210 301 289 323 322 316 316 310 298 291 282 14 36 15 3 359 13 340 15 30 19 14 12 12 11 10 8 5 3 5 6
183 179 178 178 177 177 180 178 189 185 184 194 182 185 257 23 296 304 299 297 303 303 333 29 350 12 353 356 353 349 3 34 16 8 5 4 6 6 4 3 3 2 358
185 184 187 183 178 175 175 179 182 172 172 143 121 223 286 281 296 274 279 286 297 303 309 355 341 349 351 339 2 351 359 20 9 5 3 0 357 358 357 355 353 351 347
189 191 191 192 190 185 179 176 187 180 191 177 183 200 216 285 257 252 258 269 280 288 289 309 327 339 337 337 347 343 344 345 11 32 12 3 2 357 354 353 348 345 343
190 195 192 195 192 191 192 189 191 195 203 213 219 232 238 216 245 267 264 261 268 278 281 298 305 323 328 334 335 330 334 342 349 30 14 0 359 358 359 355 354 357 356
192 195 198 199 198 200 200 201 202 204 212 225 238 247 254 245 240 237 252 264 271 268 274 274 295 314 305 318 323 320 325 330 329 351 355 352 1 355 349 346 346 347 350
197 200 200 201 203 202 206 208 208 210 213 220 233 241 256 259 262 255 247 260 262 259 261 271 284 292 300 313 309 312 320 323 321 329 337 330 321 321 323 328 333 340 345
199 199 198 198 199 203 212 215 208 210 211 213 217 221 228 346 0 333 304 282 265 259 261 274 285 293 298 305 309 312 310 312 313 317 317 315 316 318 316 299 306 338 338
192 192 197 193 191 194 152 208 237 207 210 213 217 221 208 192 191 210 275 310 310 284 280 277 285 291 302 306 306 300 303 306 307 320 309 309 309 305 310 314 346 340 328
189 193 199 197 197 182 160 185 230 225 222 230 231 228 228 229 225 235 211 212 237 261 278 284 288 296 304 309 302 297 298 299 303 316 309 300 300 296 299 309 325 317 315
189 197 202 203 204 191 173 194 216 222 230 232 233 236 235 239 243 261 261 260 270 266 256 262 281 297 308 312 304 299 301 292 288 296 302 296 301 297 301 299 278 287 297
195 198 202 205 206 200 181 202 218 220 230 234 234 238 246 248 246 264 260 266 271 270 234 232 275 291 311 313 305 293 292 289 291 294 300 295 302 303 295 287 275 253 267
197 199 199 207 212 218 170 197 226 225 231 236 237 238 238 258 248 243 252 262 270 278 282 268 261 264 273 270 257 269 283 286 294 296 305 297 300 307 301 292 299 300 292
Height
1566 1565 1565 1564 1564 1564 1564 1564 1564 1564 1565 1565 1564 1564 1564 1563 1563 1562 1561 1559 1558 1557 1556 1555 1554 1552 1551 1550 1549 1547 1546 1544 1543 1541 1539 1538 1537 1536 1536 1536 1536 1536 1537
1567 1566 1566 1566 1566 1565 1566 1566 1566 1565 1566 1566 1565 1565 1565 1564 1564 1563 1562 1561 1559 1558 1557 1555 1554 1553 1552 1550 1549 1547 1546 1544 1542 1540 1538 1536 1535 1534 1534 1535 1535 1536 1536
1568 1567 1567 1567 1567 1567 1567 1567 1567 1567 1567 1567 1567 1566 1566 1565 1565 1564 1563 1562 1561 1559 1557 1556 1555 1554 1552 1551 1549 1548 1546 1544 1542 1539 1537 1533 1530 1530 1531 1533 1534 1534 1535
1569 1568 1568 1568 1567 1567 1568 1568 1568 1568 1568 1568 1568 1568 1567 1566 1566 1565 1565 1563 1562 1561 1559 1557 1556 1554 1553 1551 1550 1548 1546 1544 1542 1539 1536 1531 1528 1527 1528 1531 1532 1533 1534
1569 1569 1569 1569 1568 1568 1568 1569 1569 1569 1569 1569 1569 1568 1568 1567 1567 1566 1566 1565 1563 1562 1560 1558 1556 1555 1553 1552 1550 1548 1546 1544 1541 1539 1536 1532 1528 1526 1527 1530 1531 1532 1533
1570 1570 1570 1570 1570 1569 1569 1569 1569 1569 1569 1569 1570 1569 1569 1568 1568 1567 1566 1565 1565 1563 1561 1560 1558 1556 1554 1552 1550 1548 1546 1544 1541 1539 1536 1533 1530 1528 1528 1530 1531 1532 1533
1571 1571 1571 1571 1570 1570 1570 1571 1570 1570 1570 1570 1571 1571 1570 1569 1569 1568 1567 1566 1565 1563 1562 1561 1559 1557 1555 1553 1550 1548 1546 1543 1540 1538 1536 1534 1532 1531 1530 1531 1532 1532 1532
1571 1572 1572 1572 1571 1571 1571 1571 1571 1571 1571 1571 1572 1571 1571 1572 1569 1568 1567 1566 1566 1564 1563 1561 1560 1558 1556 1554 1551 1548 1545 1542 1539 1537 1536 1535 1533 1533 1532 1532 1532 1532 1532
1572 1572 1572 1572 1572 1572 1572 1572 1571 1571 1572 1571 1571 1572 1571 1570 1571 1570 1568 1567 1566 1565 1564 1562 1560 1558 1557 1554 1552 1548 1545 1541 1538 1536 1536 1535 1534 1534 1533 1533 1533 1532 1532
1572 1572 1572 1572 1572 1572 1572 1572 1572 1572 1571 1572 1571 1571 1571 1571 1571 1570 1569 1568 1566 1565 1564 1562 1561 1559 1557 1555 1552 1549 1546 1542 1539 1538 1537 1536 1535 1535 1534 1534 1533 1532 1531
1572 1572 1572 1572 1572 1572 1572 1572 1572 1572 1571 1572 1571 1571 1570 1570 1570 1570 1569 1568 1567 1565 1564 1562 1561 1559 1557 1555 1552 1549 1547 1544 1542 1540 1538 1537 1536 1535 1535 1534 1533 1532 1531
1571 1571 1571 1571 1572 1572 1572 1572 1571 1571 1571 1571 1571 1571 1570 1570 1570 1569 1569 1568 1567 1566 1564 1562 1561 1559 1557 1555 1552 1549 1547 1544 1542 1540 1539 1538 1537 1536 1535 1534 1533 1532 1531
1571 1571 1571 1571 1571 1571 1571 1571 1571 1571 1570 1570 1570 1570 1570 1569 1569 1569 1568 1568 1567 1566 1564 1563 1561 1559 1557 1555 1552 1549 1546 1544 1542 1541 1539 1538 1537 1536 1535 1534 1533 1532 1531
1570 1570 1570 1570 1570 1570 1570 1570 1570 1570 1570 1570 1569 1569 1569 1568 1568 1568 1568 1567 1566 1566 1564 1564 1561 1559 1557 1555 1552 1549 1547 1544 1542 1541 1540 1538 1537 1536 1535 1534 1533 1531 1530
1569 1569 1569 1569 1569 1569 1569 1569 1570 1569 1569 1569 1569 1568 1568 1567 1567 1566 1566 1566 1567 1565 1564 1563 1561 1559 1557 1554 1552 1550 1547 1545 1543 1541 1540 1538 1537 1536 1534 1533 1532 1530 1529
1568 1568 1569 1569 1568 1568 1568 1568 1569 1568 1568 1568 1567 1567 1567 1567 1566 1565 1565 1565 1564 1565 1564 1562 1560 1558 1556 1554 1552 1549 1547 1544 1542 1541 1539 1538 1536 1535 1534 1532 1531 1529 1528
1566 1567 1567 1567 1567 1567 1567 1567 1567 1567 1568 1568 1567 1567 1566 1565 1565 1565 1564 1563 1563 1563 1562 1561 1559 1557 1555 1553 1551 1549 1547 1545 1543 1540 1538 1537 1535 1534 1532 1531 1529 1528 1526
1565 1566 1566 1566 1566 1566 1566 1566 1566 1566 1566 1566 1566 1566 1565 1564 1564 1563 1563 1562 1562 1561 1561 1559 1558 1556 1554 1552 1550 1548 1546 1545 1542 1540 1537 1536 1534 1532 1531 1529 1527 1526 1524
1563 1564 1564 1564 1564 1564 1564 1564 1565 1565 1565 1565 1564 1564 1564 1563 1562 1562 1561 1561 1560 1559 1558 1558 1556 1554 1553 1551 1549 1547 1545 1543 1542 1539 1537 1534 1532 1530 1529 1527 1525 1523 1522
1561 1562 1562 1562 1562 1562 1563 1563 1563 1563 1563 1563 1562 1562 1561 1561 1561 1560 1560 1559 1558 1557 1556 1556 1555 1553 1551 1549 1548 1546 1544 1542 1540 1538 1536 1533 1531 1529 1527 1525 1523 1521 1519
1559 1559 1560 1560 1560 1560 1561 1561 1561 1561 1561 1561 1560 1560 1559 1559 1558 1558 1557 1557 1556 1556 1555 1554 1553 1552 1550 1548 1546 1545 1543 1541 1538 1536 1534 1532 1530 1527 1525 1523 1520 1518 1516
1556 1557 1557 1558 1558 1558 1558 1558 1559 1559 1559 1559 1558 1558 1557 1556 1556 1555 1555 1554 1554 1553 1553 1552 1551 1550 1548 1546 1544 1543 1541 1539 1537 1535 1532 1530 1528 1525 1523 1520 1518 1515 1513
1553 1554 1555 1555 1555 1555 1556 1556 1556 1556 1556 1556 1556 1556 1555 1554 1554 1553 1553 1552 1551 1550 1550 1549 1548 1547 1545 1544 1542 1540 1538 1536 1534 1532 1529 1527 1525 1523 1520 1517 1514 1512 1509
1551 1551 1552 1552 1552 1552 1553 1553 1553 1554 1554 1553 1553 1553 1553 1552 1551 1551 1551 1550 1549 1548 1547 1546 1544 1543 1542 1540 1539 1537 1535 1533 1531 1528 1526 1524 1522 1519 1517 1514 1510 1508 1505
1548 1549 1549 1549 1549 1550 1550 1550 1550 1551 1551 1551 1550 1550 1550 1549 1549 1548 1548 1547 1546 1545 1544 1542 1541 1539 1538 1536 1535 1533 1531 1530 1528 1526 1523 1521 1518 1515 1512 1510 1507 1504 1501
1545 1546 1546 1546 1547 1547 1547 1547 1547 1548 1548 1548 1547 1547 1546 1546 1545 1544 1544 1543 1543 1542 1541 1539 1537 1536 1534 1533 1531 1530 1528 1526 1524 1522 1519 1517 1514 1512 1508 1506 1503 1500 1497